Lapse_Rate
3.7 3.1 2.9 2.7 3.3 4.0 3.7 4.0 3.5 3.3 4.0 3.7 3.8 3.9 3.7 3.9 3.7 3.2 3.2 3.0 3.8 4.2
2.0 4.4 3.6 3.0 3.7 3.9 3.5 3.5 3.3 3.5 3.9 3.4 3.1 3.5 3.6 3.9 3.6 3.7 3.5 3.6 3.4 3.8
0.9 1.4 2.7 4.3 4.3 3.7 4.0 2.8 2.7 3.1 3.4 3.8 3.3 2.9 3.2 3.6 3.5 3.5 3.8 3.9 3.9 4.2
0.4 0.8 1.9 3.1 4.7 4.6 3.9 3.9 4.0 3.8 3.7 4.0 4.0 3.4 3.2 3.5 3.9 3.6 3.7 4.1 3.9 3.8
-1.4 -0.4 0.4 1.4 2.3 4.3 4.6 4.2 4.2 4.4 4.1 4.2 4.5 4.4 3.9 3.8 4.0 3.6 3.4 3.8 3.8 4.0
-1.1 -1.0 0.1 -0.7 0.8 2.2 4.1 5.0 4.5 4.7 5.1 4.3 4.2 4.4 4.7 4.7 4.6 4.6 4.0 3.5 3.9 3.4
-2.0 -1.8 -1.6 -0.8 -0.1 0.6 1.3 4.0 4.5 4.3 4.8 5.1 5.0 4.9 5.0 4.8 4.9 4.8 4.8 4.5 4.4 4.1
-2.1 -1.8 -1.5 -0.8 -0.1 0.8 1.1 2.2 4.9 4.5 3.8 4.2 4.7 4.8 4.7 4.8 4.6 4.5 4.7 4.7 5.3 4.8
0.1 -0.0 -0.5 -0.4 0.3 1.0 1.2 1.6 2.3 4.3 4.4 3.9 3.7 1.8 -0.6 2.0 4.4 4.5 4.4 4.8 5.1 5.1
2.2 1.6 0.9 0.5 1.0 1.5 0.3 0.9 1.8 3.2 4.3 4.2 4.3 -0.3 -1.3 -1.8 3.3 4.3 4.4 4.5 4.5 4.5
3.7 3.2 3.0 2.8 2.6 3.1 1.9 1.7 3.2 4.5 4.9 4.4 4.0 -1.0 -1.8 -2.0 1.4 3.4 4.5 5.1 5.2 5.2
4.6 4.1 4.6 5.5 5.9 5.5 4.9 3.8 3.9 5.2 5.4 4.5 4.2 -2.7 -4.0 -2.1 2.3 3.7 4.2 5.1 5.5 5.8
4.6 4.2 3.7 3.6 3.5 3.3 2.9 3.8 3.4 4.6 3.3 -0.7 -0.9 -4.0 -4.2 -3.4 1.6 3.5 4.6 5.0 5.2 1.5
4.4 3.5 2.3 2.5 1.7 1.2 1.8 0.9 0.4 0.6 -0.7 -0.9 -2.3 -2.8 -4.3 -4.4 -1.8 -0.9 -0.1 1.6 4.1 5.5
Wind_Speed
5 5 5 7 7 8 8 10 13 15 16 16 16 15 14 9 8 9 10 10 9 8
8 4 6 6 5 7 7 7 11 16 13 14 14 16 14 9 10 9 11 11 10 9
5 6 7 5 6 7 8 7 10 11 12 12 14 15 13 10 9 11 9 10 11 11
7 5 4 7 5 8 8 8 10 12 13 13 12 12 13 13 13 13 14 12 12 15
9 7 5 4 6 5 7 6 10 9 10 12 13 12 13 14 14 14 14 16 14 15
8 7 7 5 6 5 6 8 9 11 11 12 13 14 14 15 14 15 16 16 16 17
9 8 8 8 8 6 5 8 8 9 12 13 14 14 15 14 14 14 15 16 15 16
9 8 8 8 7 8 7 7 9 10 11 12 11 10 13 14 15 16 16 15 16 17
9 9 7 7 8 7 6 8 9 10 11 13 10 13 17 15 14 16 16 16 17 17
10 9 8 7 8 8 8 9 11 12 13 14 15 15 18 20 15 15 15 16 16 15
10 11 8 8 8 11 10 10 11 14 17 16 14 15 19 21 16 15 17 16 16 17
10 10 10 9 8 8 9 9 10 12 14 15 14 9 11 7 11 12 16 15 16 17
9 8 8 8 7 6 7 6 5 5 6 15 9 20 19 14 4 8 9 12 14 16
9 8 8 7 6 7 6 6 8 9 10 11 11 12 18 15 7 6 6 6 8 8
Wind_Direction
230 208 210 204 185 186 192 198 189 195 204 206 194 194 191 202 209 207 205 202 209 215
10 237 217 209 209 205 195 188 188 195 204 207 201 199 197 205 211 206 210 214 212 218
21 23 348 215 206 218 220 205 185 194 204 207 207 202 202 213 216 210 220 219 215 222
340 4 12 343 220 206 218 218 209 201 205 212 212 209 206 213 218 217 224 225 221 226
328 334 343 354 348 263 216 212 225 216 214 214 214 219 214 218 219 220 226 228 226 233
318 326 309 325 309 305 297 223 217 232 223 220 218 221 223 220 224 228 228 230 228 230
299 303 304 303 292 289 285 287 219 223 232 230 222 218 220 223 227 228 232 234 234 236
297 287 278 277 288 287 272 264 255 229 230 237 235 223 219 222 227 230 233 235 236 236
299 291 283 272 267 259 282 293 283 252 240 240 237 230 220 220 229 228 229 235 236 240
297 291 290 290 285 287 288 287 285 273 254 248 245 228 230 223 230 236 237 238 240 242
307 302 293 284 280 276 273 268 271 272 254 251 250 227 229 233 232 241 245 246 248 247
310 300 297 292 287 286 273 267 262 264 250 249 251 335 354 296 260 249 251 251 248 246
349 352 344 323 326 327 310 289 315 287 34 46 80 40 26 7 260 255 264 262 256 247
10 21 6 349 7 356 352 27 22 49 44 45 39 30 18 14 12 357 315 310 308 290